SCP
1 1 1 2 2 2 2 1 1 1 1 1 1 1 1 1 1 1 1 1 1 1 1 1 1 1 1 1 1 1 1 1 1 1 1 1 1 1 2 2 1 1 1
1 1 2 2 1 1 1 1 1 1 1 1 1 1 1 1 1 1 1 1 1 1 1 1 1 1 1 1 1 1 1 1 1 2 2 2 2 2 2 2 2 1 1
2 2 2 1 1 1 1 1 1 0 0 0 1 1 1 1 1 1 1 1 1 2 2 2 2 2 2 2 2 2 2 2 2 2 2 2 2 2 2 2 2 1 1
2 2 1 1 1 1 1 1 0 0 0 0 1 1 1 1 1 1 1 1 1 2 2 3 3 2 2 2 2 2 2 2 2 2 1 1 2 2 2 2 2 1 1
2 2 1 1 1 0 1 1 0 0 0 0 1 1 1 1 1 1 1 1 2 2 2 2 2 3 3 3 2 3 2 2 2 1 1 1 2 2 2 2 2 1 1
2 2 1 1 1 1 1 1 1 0 1 1 1 1 1 1 1 2 2 2 2 2 2 2 2 2 3 3 3 3 3 3 2 2 2 2 2 2 2 2 1 1 1
2 2 2 1 1 1 1 1 1 1 1 1 1 1 1 1 2 2 2 2 2 2 2 2 1 2 2 2 2 3 3 3 3 3 2 2 2 1 1 1 1 1 1
2 2 2 2 1 1 1 1 1 1 1 1 1 1 1 2 2 2 2 1 1 2 2 2 2 2 2 2 2 2 2 2 2 2 2 2 1 1 1 1 1 1 1
2 2 2 2 1 1 1 1 1 1 1 1 1 1 2 2 2 2 2 1 1 1 2 2 2 2 2 2 2 2 2 2 2 2 2 2 1 1 1 1 1 1 1
2 2 2 2 2 1 1 1 1 1 1 1 2 2 2 2 2 2 1 0 0 1 1 2 2 3 3 3 3 2 2 3 3 2 2 2 2 2 2 2 2 2 2
2 2 2 2 2 1 1 1 1 2 2 2 2 1 1 1 1 1 1 0 0 0 1 1 2 2 2 3 3 3 3 3 3 3 2 2 2 2 2 2 2 2 2
2 2 2 2 2 2 2 2 3 3 2 2 1 1 1 1 1 1 0 0 0 0 1 1 1 1 2 2 2 3 3 3 3 3 3 2 2 2 2 2 3 3 3
2 2 2 2 3 3 4 4 4 3 2 1 1 1 1 1 1 1 1 1 0 0 0 0 1 1 1 1 1 2 2 3 3 3 3 3 2 2 2 2 2 3 3
3 2 2 2 3 4 5 5 4 3 2 2 2 2 2 1 1 1 1 1 0 0 0 0 0 1 1 1 1 1 1 2 2 2 2 2 3 2 2 2 2 2 2
2 2 2 2 4 4 4 4 3 2 2 2 3 3 2 2 2 1 1 1 1 0 0 0 0 1 1 1 1 1 1 1 1 1 2 2 2 2 2 1 2 2 2
2 2 2 3 4 4 4 3 2 2 2 3 3 3 3 3 3 2 2 2 1 1 0 0 0 1 1 1 1 1 1 1 1 1 2 2 2 1 1 1 1 2 2
2 2 3 4 4 4 3 2 2 2 2 2 2 3 3 3 3 3 3 3 2 1 1 1 0 1 1 1 1 1 1 1 1 1 1 1 1 1 1 1 1 1 1
2 3 4 4 4 3 2 2 2 2 2 2 2 2 3 3 3 3 4 4 3 3 2 1 1 1 1 1 1 1 1 1 1 1 1 0 0 1 1 1 1 1 1
2 3 4 4 3 2 2 2 1 1 2 2 2 2 3 4 4 3 3 4 4 4 3 2 1 1 1 2 2 1 1 1 1 0 0 0 0 0 0 0 0 0 0
3 3 3 2 2 2 2 2 1 1 2 2 2 2 3 3 3 3 3 3 4 4 3 2 2 2 2 2 2 2 2 1 1 1 1 1 1 1 0 0 0 0 0
3 3 3 3 2 2 2 2 2 2 2 2 2 2 3 3 3 2 2 2 3 3 3 3 3 3 3 2 2 2 2 2 1 1 1 1 1 1 1 0 0 0 0
4 4 5 4 4 3 3 2 2 2 2 2 3 3 3 2 2 2 2 2 2 3 3 4 4 4 3 2 1 2 2 2 2 2 2 1 1 1 1 1 0 0 0
5 5 6 6 5 5 4 2 2 2 3 3 3 3 3 3 2 2 2 2 3 3 3 3 4 3 2 1 1 1 2 2 2 2 2 2 2 2 1 1 0 0 0
4 5 5 6 6 5 4 3 2 2 3 3 3 3 3 3 3 3 3 3 4 4 3 2 2 2 1 1 1 1 2 2 2 2 3 3 2 2 2 1 1 0 0
4 4 4 4 4 4 3 2 2 2 3 3 4 3 3 3 3 3 3 4 4 4 3 2 2 1 1 1 1 1 2 2 2 2 2 3 3 3 2 2 1 0 0
3 3 3 4 3 3 3 2 2 2 3 4 4 3 3 3 3 3 3 4 5 4 3 2 2 1 1 1 1 1 2 2 2 2 2 3 3 3 2 1 1 0 0
Wind_Speed
2 1 1 1 1 1 1 1 1 1 0 0 1 2 2 2 3 2 2 7 8 8 8 8 8 8 8 8 7 7 7 7 8 9 10 10 10 10 10 10 9 9 9
2 2 2 1 1 0 1 1 1 1 0 0 0 1 2 2 3 3 3 4 7 7 8 8 8 8 8 7 7 6 7 7 8 9 10 10 10 10 10 10 10 9 9
2 2 2 1 0 0 1 1 1 1 1 1 1 0 1 2 2 3 3 2 3 6 8 8 8 7 7 8 8 7 6 7 8 9 10 10 10 10 10 10 10 9 8
2 2 2 1 0 1 1 1 1 1 1 1 0 1 1 1 2 2 2 2 2 2 4 7 8 8 7 7 7 6 6 5 6 8 8 9 10 9 9 9 9 8 8
2 2 2 1 1 1 1 1 1 1 1 0 1 1 1 1 1 2 2 3 3 2 2 4 6 7 7 6 6 6 6 5 5 6 7 9 9 9 9 9 8 8 8
1 2 1 1 1 2 1 1 1 1 0 1 1 1 1 0 1 1 2 2 2 3 3 3 2 3 5 6 6 6 7 6 5 5 6 8 9 10 9 9 9 9 8
1 2 1 1 1 1 1 1 1 1 1 1 2 2 3 1 0 0 1 1 2 3 3 3 2 2 2 4 6 6 6 6 6 6 6 7 9 9 9 10 9 9 9
1 2 2 1 1 1 1 1 1 1 1 1 1 1 2 4 2 1 0 1 1 1 2 3 3 3 2 1 3 6 6 6 6 6 6 6 7 8 8 9 9 9 10
1 1 1 2 1 1 1 1 1 1 0 1 1 2 1 1 2 2 1 1 1 1 1 2 3 3 3 2 2 4 5 5 5 6 6 7 7 8 9 9 9 10 10
1 1 1 1 1 1 1 1 1 1 1 1 1 0 2 3 1 2 3 2 1 1 2 2 2 3 3 2 3 4 6 5 5 6 7 8 8 8 9 9 10 10 10
1 1 1 1 1 1 1 0 0 0 1 1 1 1 0 0 1 2 2 3 2 2 2 2 2 2 3 3 3 4 6 6 6 6 5 6 7 8 8 9 9 10 10
1 2 1 1 0 0 0 0 0 0 0 0 0 0 1 1 1 1 2 2 2 2 2 1 1 2 2 2 4 5 6 6 6 6 6 7 8 8 8 9 9 9 9
0 1 1 1 0 0 0 0 0 0 0 0 1 1 1 1 1 2 1 1 2 2 2 1 1 1 2 2 3 5 6 6 7 7 6 6 7 8 8 8 8 8 8
1 0 0 0 1 1 1 0 0 1 0 1 1 0 0 1 0 1 2 1 1 2 2 3 2 1 1 2 3 5 3 6 7 7 7 7 7 7 8 8 8 8 8
1 0 0 0 1 1 1 1 1 1 1 1 1 1 0 1 0 0 1 2 2 1 2 3 2 2 2 1 3 2 2 4 6 6 7 8 8 7 7 8 8 8 8
1 1 1 0 1 1 1 1 1 1 1 1 1 1 1 1 1 1 0 0 1 2 2 2 2 2 2 2 2 1 2 4 5 5 5 6 7 7 7 8 8 8 8
1 1 1 0 0 0 1 0 0 0 0 1 1 1 1 1 0 1 0 0 0 1 2 3 2 2 2 2 2 2 1 2 3 5 5 6 6 7 7 7 8 8 9
2 2 1 1 1 0 0 1 1 1 0 1 1 1 2 1 1 1 0 0 1 1 1 2 2 2 2 2 2 2 1 2 2 4 5 6 6 6 6 7 7 8 8
2 1 1 1 1 0 0 1 1 1 1 1 1 1 2 1 1 1 1 1 1 1 1 1 2 1 2 2 2 2 2 2 3 3 4 4 5 6 6 6 7 7 8
2 1 1 1 1 1 1 1 0 0 1 1 1 1 1 1 2 2 1 1 1 1 1 1 2 2 2 2 1 1 3 2 3 3 2 3 4 6 7 7 7 7 7
2 1 1 0 0 0 1 1 0 0 0 1 2 2 2 2 2 1 1 1 0 1 1 1 2 2 2 1 2 1 2 3 3 2 1 2 2 2 3 6 8 8 8
1 1 1 1 0 1 0 1 1 0 0 1 2 3 3 3 3 2 2 1 1 1 2 1 2 2 4 3 2 2 2 1 3 2 1 3 1 2 3 3 5 7 8
2 1 1 1 1 1 0 1 2 2 2 2 2 2 3 3 2 2 3 3 3 4 3 3 3 4 4 4 3 3 2 2 4 3 1 3 2 3 3 4 6 6 7
2 2 1 1 1 2 1 1 1 1 2 2 3 3 3 3 3 1 1 2 3 3 4 3 4 5 5 4 4 3 3 3 3 2 1 2 2 2 3 3 5 5 6
1 2 1 2 2 3 2 2 2 1 1 3 3 2 2 2 4 2 1 2 4 5 5 5 4 5 6 5 3 1 1 1 3 3 1 2 2 2 2 2 3 3 4
2 2 2 2 2 3 3 3 2 1 2 2 2 2 3 3 4 2 1 2 3 5 4 4 4 5 4 4 3 3 3 2 2 3 2 2 2 1 2 2 1 2 2
Wind_Direction
84 80 89 82 81 88 106 129 121 118 104 153 170 158 170 178 168 168 185 192 194 196 200 201 203 204 202 204 207 211 215 222 220 211 207 209 212 210 211 210 206 205 207
104 102 92 87 82 108 135 127 123 135 163 119 98 146 170 178 175 176 184 195 201 202 207 205 206 204 203 206 212 216 220 228 224 214 211 210 210 211 213 211 208 207 208
108 108 103 101 80 73 92 85 88 102 93 78 35 305 206 198 178 178 183 191 197 208 211 210 209 209 211 214 217 219 224 233 228 217 212 210 208 209 212 209 208 207 207
114 108 99 97 91 76 83 95 88 80 68 65 315 270 228 203 192 188 176 178 194 213 216 215 214 211 212 218 222 224 226 228 228 219 213 207 206 206 206 202 202 201 204
113 115 109 108 87 79 75 102 80 89 85 24 261 269 270 220 204 197 181 187 195 199 200 210 213 212 217 225 232 234 231 228 229 222 209 202 201 202 202 200 201 201 203
119 116 110 80 76 80 55 54 86 79 154 211 301 351 327 285 191 195 205 203 198 197 190 196 208 215 220 223 231 235 235 231 226 218 210 200 201 203 202 203 205 207 207
136 124 120 91 84 90 87 52 72 50 11 39 46 5 353 359 29 257 211 203 206 198 182 189 190 202 227 227 227 231 236 231 225 219 212 209 208 206 206 209 210 212 214
158 146 133 128 124 104 56 51 76 52 349 56 102 55 357 349 346 332 307 207 227 194 191 195 189 195 209 222 230 228 231 234 229 223 218 214 212 212 211 215 216 217 218
157 120 136 135 136 132 140 164 137 129 252 304 144 139 141 251 306 319 307 290 268 234 234 199 188 196 204 209 232 232 224 226 226 226 227 224 218 213 213 218 221 222 221
88 96 107 121 130 131 162 222 166 162 148 282 311 233 182 177 172 304 318 306 267 238 240 227 211 207 211 213 217 216 219 222 231 235 234 225 218 218 219 222 224 225 224
25 48 91 98 118 152 184 215 118 118 152 188 236 271 300 60 136 160 280 308 316 282 244 235 222 212 216 222 224 222 218 222 228 235 235 220 214 216 223 225 228 227 226
358 352 31 36 94 156 169 191 181 156 188 218 241 192 174 179 215 173 222 270 286 288 283 262 230 227 221 223 227 224 222 221 223 227 230 224 221 221 223 224 224 225 226
353 318 2 15 13 259 121 95 108 287 281 274 253 233 199 209 195 173 179 250 278 290 304 301 258 234 232 226 231 226 228 226 222 221 223 224 223 223 224 224 220 218 220
207 285 34 22 354 3 50 77 102 275 351 283 289 271 257 263 204 168 173 171 315 317 309 284 289 261 259 243 239 231 231 228 226 223 224 225 223 225 228 226 223 220 220
170 124 103 42 352 21 35 59 55 338 355 336 309 311 302 296 333 214 163 155 161 246 281 279 289 297 291 256 251 233 235 238 232 229 228 226 223 224 226 225 225 222 220
165 133 120 63 12 18 28 51 33 348 29 355 14 26 350 326 346 6 87 119 156 177 244 268 258 282 300 303 278 249 243 260 250 243 239 231 225 224 223 222 222 223 224
168 164 165 175 231 35 50 60 327 338 30 348 347 8 335 345 0 331 356 356 156 160 228 281 281 299 313 317 321 308 293 266 261 246 240 236 234 231 229 226 222 221 222
185 180 173 179 198 232 250 207 274 305 296 332 331 345 323 344 353 320 356 314 274 221 193 267 292 314 301 290 297 303 302 278 267 259 246 241 236 235 236 235 228 223 224
194 187 161 165 199 253 284 243 255 316 305 284 304 309 303 324 316 316 326 313 291 312 225 229 275 285 293 312 332 316 310 304 288 282 266 252 244 237 238 240 234 227 226
185 195 171 181 198 229 247 233 161 11 319 301 302 294 291 278 265 265 279 280 287 315 304 279 282 290 285 294 336 312 317 309 297 301 300 284 260 247 245 243 237 232 232
177 162 152 196 259 244 269 192 188 113 340 329 322 315 306 304 280 259 259 254 267 269 288 284 283 300 301 314 285 260 277 291 284 267 284 278 267 259 250 245 240 237 233
162 131 149 182 249 294 351 145 155 149 286 283 298 304 300 297 294 289 290 274 232 232 246 247 263 267 272 264 263 259 268 299 288 272 251 274 253 259 257 247 246 237 232
161 153 181 194 241 281 281 179 169 195 224 248 264 286 303 315 300 283 294 304 296 282 247 220 239 251 252 250 248 261 257 249 252 261 249 276 259 256 257 256 252 244 232
172 177 187 206 230 286 281 208 192 213 233 249 249 250 262 285 302 284 286 310 300 285 268 240 233 246 247 241 222 227 233 261 276 275 201 252 268 259 268 265 253 245 241
189 196 207 222 240 278 278 239 217 215 245 264 263 265 250 262 299 292 273 295 303 299 292 286 277 277 279 273 251 209 267 277 288 281 232 217 256 272 276 277 278 265 257
200 208 235 246 251 275 284 252 226 204 240 271 289 291 279 274 293 289 244 261 287 291 304 314 310 304 291 286 266 208 206 222 251 272 254 203 244 269 299 286 296 305 283